Time,TemperatureF,DewpointF,PressureIn,WindDirection,WindDirectionDegrees,WindSpeedMPH,WindSpeedGustMPH,Humidity,HourlyPrecipIn,Conditions,Clouds,dailyrainin,SoftwareType,DateUTC
2013-08-19 00:02:00,69.8,62.6,30.01,North,0,0.0,-999.9,78,-99.99,,,-99.99,,2013-08-19 04:02:00,
2013-08-19 00:06:00,69.8,62.6,30.01,North,0,0.0,-999.9,78,-99.99,,,-99.99,,2013-08-19 04:06:00,
2013-08-19 00:08:00,69.8,62.6,30.01,North,0,0.0,-999.9,78,-99.99,,,-99.99,,2013-08-19 04:08:00,
2013-08-19 00:12:00,69.8,57.2,30.01,North,0,0.0,-999.9,64,-99.99,,,-99.99,,2013-08-19 04:12:00,
2013-08-19 00:14:00,69.8,57.2,30.01,North,0,0.0,-999.9,64,-99.99,,,-99.99,,2013-08-19 04:14:00,
2013-08-19 00:20:00,69.8,57.2,30.01,North,0,0.0,-999.9,64,-99.99,,,-99.99,,2013-08-19 04:20:00,
2013-08-19 00:26:00,69.8,55.4,30.01,North,0,0.0,-999.9,60,-99.99,,,-99.99,,2013-08-19 04:26:00,
2013-08-19 00:32:00,69.8,53.6,30.01,North,0,0.0,-999.9,56,-99.99,,,-99.99,,2013-08-19 04:32:00,
2013-08-19 00:38:00,69.8,53.6,30.01,North,0,0.0,-999.9,56,-99.99,,,-99.99,,2013-08-19 04:38:00,
2013-08-19 00:44:00,69.8,57.2,30.01,North,0,0.0,-999.9,64,-99.99,,,-99.99,,2013-08-19 04:44:00,
2013-08-19 00:50:00,69.8,57.2,30.01,North,0,0.0,-999.9,64,-99.99,,,-99.99,,2013-08-19 04:50:00,
2013-08-19 00:56:00,69.8,59.0,30.01,SW,219,1.2,-999.9,68,-99.99,,,-99.99,,2013-08-19 04:56:00,
2013-08-19 01:32:00,69.8,57.2,30.01,South,188,9.2,-999.9,64,-99.99,,,-99.99,,2013-08-19 05:32:00,
2013-08-19 01:38:00,69.8,57.2,30.01,South,188,9.2,-999.9,64,-99.99,,,-99.99,,2013-08-19 05:38:00,
2013-08-19 01:44:00,69.8,59.0,30.01,SSW,206,9.2,-999.9,68,-99.99,,,-99.99,,2013-08-19 05:44:00,
2013-08-19 01:50:00,69.8,59.0,30.01,SSW,206,9.2,-999.9,68,-99.99,,,-99.99,,2013-08-19 05:50:00,
2013-08-19 02:02:00,69.8,57.2,30.01,SSW,205,3.5,-999.9,64,-99.99,,,-99.99,,2013-08-19 06:02:00,
2013-08-19 02:08:00,69.8,57.2,30.01,SSW,205,3.5,-999.9,64,-99.99,,,-99.99,,2013-08-19 06:08:00,
2013-08-19 02:14:00,69.8,57.2,30.00,SW,225,8.1,-999.9,64,-99.99,,,-99.99,,2013-08-19 06:14:00,
2013-08-19 02:20:00,69.8,57.2,30.00,SW,225,8.1,-999.9,64,-99.99,,,-99.99,,2013-08-19 06:20:00,
2013-08-19 02:26:00,69.8,57.2,29.99,SSW,209,10.4,-999.9,64,-99.99,,,-99.99,,2013-08-19 06:26:00,
2013-08-19 02:32:00,69.8,59.0,30.00,SW,216,8.1,-999.9,68,-99.99,,,-99.99,,2013-08-19 06:32:00,
2013-08-19 02:38:00,69.8,59.0,30.00,SW,216,8.1,-999.9,68,-99.99,,,-99.99,,2013-08-19 06:38:00,
2013-08-19 02:44:00,69.8,59.0,30.00,SW,224,9.2,-999.9,68,-99.99,,,-99.99,,2013-08-19 06:44:00,
2013-08-19 02:50:00,69.8,59.0,30.00,SW,224,9.2,-999.9,68,-99.99,,,-99.99,,2013-08-19 06:50:00,
2013-08-19 02:56:00,69.8,59.0,30.00,SW,221,9.2,-999.9,68,-99.99,,,-99.99,,2013-08-19 06:56:00,
2013-08-19 03:02:00,69.8,59.0,30.00,SW,232,8.1,-999.9,68,-99.99,,,-99.99,,2013-08-19 07:02:00,
2013-08-19 03:08:00,69.8,59.0,30.00,SW,232,8.1,-999.9,68,-99.99,,,-99.99,,2013-08-19 07:08:00,
2013-08-19 03:14:00,69.8,59.0,30.00,SW,234,6.9,-999.9,68,-99.99,,,-99.99,,2013-08-19 07:14:00,
2013-08-19 03:20:00,69.8,59.0,30.00,SW,234,6.9,-999.9,68,-99.99,,,-99.99,,2013-08-19 07:20:00,
2013-08-19 03:26:00,69.8,59.0,30.00,SW,219,8.1,-999.9,68,-99.99,,,-99.99,,2013-08-19 07:26:00,
2013-08-19 03:32:00,69.8,59.0,30.00,WSW,253,8.1,-999.9,68,-99.99,,,-99.99,,2013-08-19 07:32:00,
2013-08-19 03:38:00,69.8,59.0,30.00,WSW,253,8.1,-999.9,68,-99.99,,,-99.99,,2013-08-19 07:38:00,
2013-08-19 03:44:00,69.8,60.8,29.99,WSW,247,5.8,-999.9,73,-99.99,,,-99.99,,2013-08-19 07:44:00,
2013-08-19 03:50:00,69.8,60.8,29.99,WSW,247,5.8,-999.9,73,-99.99,,,-99.99,,2013-08-19 07:50:00,
2013-08-19 03:56:00,69.8,59.0,29.99,WSW,241,8.1,-999.9,68,-99.99,,,-99.99,,2013-08-19 07:56:00,
2013-08-19 04:02:00,69.8,59.0,29.99,WSW,244,5.8,-999.9,68,-99.99,,,-99.99,,2013-08-19 08:02:00,
2013-08-19 04:08:00,69.8,59.0,29.99,WSW,244,5.8,-999.9,68,-99.99,,,-99.99,,2013-08-19 08:08:00,
2013-08-19 04:14:00,69.8,59.0,29.99,WSW,246,6.9,-999.9,68,-99.99,,,-99.99,,2013-08-19 08:14:00,
2013-08-19 04:20:00,69.8,59.0,29.99,WSW,246,6.9,-999.9,68,-99.99,,,-99.99,,2013-08-19 08:20:00,
2013-08-19 04:26:00,69.8,60.8,29.99,WSW,242,4.6,-999.9,73,-99.99,,,-99.99,,2013-08-19 08:26:00,
2013-08-19 04:32:00,69.8,60.8,29.99,WSW,238,5.8,-999.9,73,-99.99,,,-99.99,,2013-08-19 08:32:00,
2013-08-19 04:38:00,69.8,60.8,29.99,WSW,238,5.8,-999.9,73,-99.99,,,-99.99,,2013-08-19 08:38:00,
2013-08-19 04:44:00,68.0,59.0,29.99,WSW,258,4.6,-999.9,73,-99.99,,,-99.99,,2013-08-19 08:44:00,
2013-08-19 04:50:00,68.0,59.0,29.99,WSW,258,4.6,-999.9,73,-99.99,,,-99.99,,2013-08-19 08:50:00,
2013-08-19 04:56:00,68.0,59.0,29.99,West,261,5.8,-999.9,73,-99.99,,,-99.99,,2013-08-19 08:56:00,
2013-08-19 05:02:00,69.8,60.8,29.99,West,273,10.4,-999.9,73,-99.99,,,-99.99,,2013-08-19 09:02:00,
2013-08-19 05:08:00,69.8,60.8,29.99,West,273,10.4,-999.9,73,-99.99,,,-99.99,,2013-08-19 09:08:00,
2013-08-19 05:14:00,69.8,60.8,29.99,West,263,9.2,-999.9,73,-99.99,,,-99.99,,2013-08-19 09:14:00,
2013-08-19 05:20:00,69.8,60.8,29.99,West,263,9.2,-999.9,73,-99.99,,,-99.99,,2013-08-19 09:20:00,
2013-08-19 05:26:00,69.8,60.8,30.00,West,268,6.9,-999.9,73,-99.99,,,-99.99,,2013-08-19 09:26:00,
2013-08-19 05:32:00,69.8,60.8,29.99,WNW,301,6.9,-999.9,73,-99.99,,,-99.99,,2013-08-19 09:32:00,
2013-08-19 05:38:00,69.8,60.8,29.99,WNW,301,6.9,-999.9,73,-99.99,,,-99.99,,2013-08-19 09:38:00,
2013-08-19 05:44:00,69.8,60.8,29.99,West,270,8.1,-999.9,73,-99.99,,,-99.99,,2013-08-19 09:44:00,
2013-08-19 05:50:00,69.8,60.8,29.99,West,270,8.1,-999.9,73,-99.99,,,-99.99,,2013-08-19 09:50:00,
2013-08-19 05:56:00,69.8,62.6,29.99,WNW,282,4.6,-999.9,78,-99.99,,,-99.99,,2013-08-19 09:56:00,
2013-08-19 06:02:00,69.8,62.6,29.99,West,273,8.1,-999.9,78,-99.99,,,-99.99,,2013-08-19 10:02:00,
2013-08-19 06:08:00,69.8,62.6,29.99,West,273,8.1,-999.9,78,-99.99,,,-99.99,,2013-08-19 10:08:00,
2013-08-19 06:14:00,68.0,60.8,29.99,WSW,250,4.6,-999.9,78,-99.99,,,-99.99,,2013-08-19 10:14:00,
2013-08-19 06:20:00,68.0,60.8,29.99,WSW,250,4.6,-999.9,78,-99.99,,,-99.99,,2013-08-19 10:20:00,
2013-08-19 06:26:00,68.0,60.8,30.00,SW,225,2.3,-999.9,78,-99.99,,,-99.99,,2013-08-19 10:26:00,
2013-08-19 06:32:00,68.0,60.8,30.00,West,262,1.2,-999.9,78,-99.99,,,-99.99,,2013-08-19 10:32:00,
2013-08-19 06:38:00,68.0,60.8,30.00,West,262,1.2,-999.9,78,-99.99,,,-99.99,,2013-08-19 10:38:00,
2013-08-19 06:44:00,68.0,60.8,30.01,WSW,244,2.3,-999.9,78,-99.99,,,-99.99,,2013-08-19 10:44:00,
2013-08-19 06:50:00,68.0,60.8,30.01,WSW,244,2.3,-999.9,78,-99.99,,,-99.99,,2013-08-19 10:50:00,
2013-08-19 06:56:00,68.0,60.8,30.01,North,0,0.0,-999.9,78,-99.99,,,-99.99,,2013-08-19 10:56:00,
2013-08-19 07:02:00,68.0,60.8,30.00,North,0,0.0,-999.9,78,-99.99,,,-99.99,,2013-08-19 11:02:00,
2013-08-19 07:08:00,68.0,60.8,30.00,North,0,0.0,-999.9,78,-99.99,,,-99.99,,2013-08-19 11:08:00,
2013-08-19 07:14:00,69.8,62.6,30.01,South,191,0.0,-999.9,78,-99.99,,,-99.99,,2013-08-19 11:14:00,
2013-08-19 07:20:00,69.8,62.6,30.01,South,191,0.0,-999.9,78,-99.99,,,-99.99,,2013-08-19 11:20:00,
2013-08-19 07:26:00,69.8,62.6,30.00,South,191,1.2,-999.9,78,-99.99,,,-99.99,,2013-08-19 11:26:00,
2013-08-19 07:32:00,69.8,62.6,30.00,WSW,237,0.0,-999.9,78,-99.99,,,-99.99,,2013-08-19 11:32:00,
2013-08-19 07:38:00,69.8,62.6,30.00,WSW,237,0.0,-999.9,78,-99.99,,,-99.99,,2013-08-19 11:38:00,
2013-08-19 07:44:00,69.8,62.6,30.00,SW,226,1.2,-999.9,78,-99.99,,,-99.99,,2013-08-19 11:44:00,
2013-08-19 07:50:00,69.8,62.6,30.00,SW,226,1.2,-999.9,78,-99.99,,,-99.99,,2013-08-19 11:50:00,
2013-08-19 07:56:00,69.8,60.8,30.00,SW,236,0.0,-999.9,73,-99.99,,,-99.99,,2013-08-19 11:56:00,
2013-08-19 08:02:00,71.6,62.6,30.00,SW,224,1.2,-999.9,73,-99.99,,,-99.99,,2013-08-19 12:02:00,
2013-08-19 08:08:00,71.6,62.6,30.00,SW,224,1.2,-999.9,73,-99.99,,,-99.99,,2013-08-19 12:08:00,
2013-08-19 08:14:00,71.6,62.6,29.99,WSW,243,2.3,-999.9,73,-99.99,,,-99.99,,2013-08-19 12:14:00,
2013-08-19 08:20:00,71.6,62.6,29.99,WSW,243,2.3,-999.9,73,-99.99,,,-99.99,,2013-08-19 12:20:00,
2013-08-19 08:26:00,71.6,62.6,29.99,WSW,237,2.3,-999.9,73,-99.99,,,-99.99,,2013-08-19 12:26:00,
2013-08-19 08:32:00,71.6,60.8,29.98,North,0,0.0,-999.9,69,-99.99,,,-99.99,,2013-08-19 12:32:00,
2013-08-19 08:38:00,71.6,60.8,29.98,North,0,0.0,-999.9,69,-99.99,,,-99.99,,2013-08-19 12:38:00,
2013-08-19 08:44:00,73.4,62.6,29.98,North,0,0.0,-999.9,69,-99.99,,,-99.99,,2013-08-19 12:44:00,
2013-08-19 08:50:00,73.4,62.6,29.98,North,0,0.0,-999.9,69,-99.99,,,-99.99,,2013-08-19 12:50:00,
2013-08-19 08:56:00,73.4,60.8,29.98,WSW,253,0.0,-999.9,65,-99.99,,,-99.99,,2013-08-19 12:56:00,
2013-08-19 09:02:00,73.4,60.8,29.97,West,260,0.0,-999.9,65,-99.99,,,-99.99,,2013-08-19 13:02:00,
2013-08-19 09:08:00,73.4,60.8,29.97,West,260,0.0,-999.9,65,-99.99,,,-99.99,,2013-08-19 13:08:00,
2013-08-19 09:14:00,75.2,62.6,29.96,SW,216,3.5,-999.9,65,-99.99,,,-99.99,,2013-08-19 13:14:00,
2013-08-19 09:20:00,75.2,62.6,29.96,SW,216,3.5,-999.9,65,-99.99,,,-99.99,,2013-08-19 13:20:00,
2013-08-19 09:26:00,73.4,60.8,29.96,SW,223,2.3,-999.9,65,-99.99,,,-99.99,,2013-08-19 13:26:00,
2013-08-19 09:32:00,75.2,60.8,29.96,West,261,3.5,-999.9,61,-99.99,,,-99.99,,2013-08-19 13:32:00,
2013-08-19 09:38:00,75.2,60.8,29.96,West,261,3.5,-999.9,61,-99.99,,,-99.99,,2013-08-19 13:38:00,
2013-08-19 09:44:00,75.2,60.8,29.96,SSW,212,2.3,-999.9,61,-99.99,,,-99.99,,2013-08-19 13:44:00,
2013-08-19 09:50:00,75.2,60.8,29.96,SSW,212,2.3,-999.9,61,-99.99,,,-99.99,,2013-08-19 13:50:00,
2013-08-19 09:56:00,77.0,60.8,29.96,NNW,327,8.1,-999.9,57,-99.99,,,-99.99,,2013-08-19 13:56:00,
2013-08-19 10:02:00,77.0,59.0,29.95,NW,311,2.3,-999.9,54,-99.99,,,-99.99,,2013-08-19 14:02:00,
2013-08-19 10:08:00,77.0,59.0,29.95,NW,311,2.3,-999.9,54,-99.99,,,-99.99,,2013-08-19 14:08:00,
2013-08-19 10:14:00,77.0,59.0,29.95,SSW,211,5.8,-999.9,54,-99.99,,,-99.99,,2013-08-19 14:14:00,
2013-08-19 10:20:00,77.0,59.0,29.95,SSW,211,5.8,-999.9,54,-99.99,,,-99.99,,2013-08-19 14:20:00,
2013-08-19 10:26:00,77.0,60.8,29.95,SW,229,8.1,-999.9,57,-99.99,,,-99.99,,2013-08-19 14:26:00,
2013-08-19 10:32:00,77.0,59.0,29.95,West,272,6.9,-999.9,54,-99.99,,,-99.99,,2013-08-19 14:32:00,
2013-08-19 10:38:00,77.0,59.0,29.95,West,272,6.9,-999.9,54,-99.99,,,-99.99,,2013-08-19 14:38:00,
2013-08-19 10:44:00,78.8,60.8,29.95,West,267,1.2,-999.9,54,-99.99,,,-99.99,,2013-08-19 14:44:00,
2013-08-19 10:50:00,78.8,60.8,29.95,West,267,1.2,-999.9,54,-99.99,,,-99.99,,2013-08-19 14:50:00,
2013-08-19 10:56:00,77.0,57.2,29.95,WNW,292,10.4,-999.9,50,-99.99,,,-99.99,,2013-08-19 14:56:00,
2013-08-19 11:02:00,78.8,59.0,29.94,WNW,282,6.9,-999.9,51,-99.99,,,-99.99,,2013-08-19 15:02:00,
2013-08-19 11:08:00,78.8,59.0,29.94,WNW,282,6.9,-999.9,51,-99.99,,,-99.99,,2013-08-19 15:08:00,
2013-08-19 11:14:00,78.8,59.0,29.94,West,281,3.5,-999.9,51,-99.99,,,-99.99,,2013-08-19 15:14:00,
2013-08-19 11:20:00,78.8,59.0,29.94,West,281,3.5,-999.9,51,-99.99,,,-99.99,,2013-08-19 15:20:00,
2013-08-19 11:26:00,78.8,57.2,29.93,NNW,332,8.1,-999.9,47,-99.99,,,-99.99,,2013-08-19 15:26:00,
2013-08-19 11:32:00,78.8,59.0,29.94,WSW,247,11.5,-999.9,51,-99.99,,,-99.99,,2013-08-19 15:32:00,
2013-08-19 11:38:00,78.8,59.0,29.94,WSW,247,11.5,-999.9,51,-99.99,,,-99.99,,2013-08-19 15:38:00,
2013-08-19 11:44:00,78.8,57.2,29.94,West,278,9.2,-999.9,47,-99.99,,,-99.99,,2013-08-19 15:44:00,
2013-08-19 11:50:00,78.8,57.2,29.94,West,278,9.2,-999.9,47,-99.99,,,-99.99,,2013-08-19 15:50:00,
2013-08-19 11:56:00,78.8,59.0,29.94,WNW,288,9.2,-999.9,51,-99.99,,,-99.99,,2013-08-19 15:56:00,
2013-08-19 12:02:00,78.8,59.0,29.94,SSW,208,4.6,-999.9,51,-99.99,,,-99.99,,2013-08-19 16:02:00,
2013-08-19 12:08:00,78.8,59.0,29.94,SSW,208,4.6,-999.9,51,-99.99,,,-99.99,,2013-08-19 16:08:00,
2013-08-19 12:14:00,78.8,57.2,29.93,SW,227,8.1,-999.9,47,-99.99,,,-99.99,,2013-08-19 16:14:00,
2013-08-19 12:20:00,78.8,57.2,29.93,SW,227,8.1,-999.9,47,-99.99,,,-99.99,,2013-08-19 16:20:00,
2013-08-19 12:26:00,80.6,57.2,29.93,NW,314,3.5,-999.9,45,-99.99,,,-99.99,,2013-08-19 16:26:00,
2013-08-19 12:32:00,78.8,57.2,29.93,West,266,11.5,-999.9,47,-99.99,,,-99.99,,2013-08-19 16:32:00,
2013-08-19 12:38:00,78.8,57.2,29.93,West,266,11.5,-999.9,47,-99.99,,,-99.99,,2013-08-19 16:38:00,
2013-08-19 12:44:00,80.6,57.2,29.92,West,264,8.1,-999.9,45,-99.99,,,-99.99,,2013-08-19 16:44:00,
2013-08-19 12:50:00,80.6,57.2,29.92,West,264,8.1,-999.9,45,-99.99,,,-99.99,,2013-08-19 16:50:00,
2013-08-19 12:56:00,80.6,59.0,29.92,West,280,5.8,-999.9,48,-99.99,,,-99.99,,2013-08-19 16:56:00,
2013-08-19 13:02:00,80.6,57.2,29.92,NNW,329,6.9,-999.9,45,-99.99,,,-99.99,,2013-08-19 17:02:00,
2013-08-19 13:08:00,80.6,57.2,29.92,NNW,329,6.9,-999.9,45,-99.99,,,-99.99,,2013-08-19 17:08:00,
2013-08-19 13:14:00,80.6,57.2,29.91,West,259,6.9,-999.9,45,-99.99,,,-99.99,,2013-08-19 17:14:00,
2013-08-19 13:20:00,80.6,57.2,29.91,West,259,6.9,-999.9,45,-99.99,,,-99.99,,2013-08-19 17:20:00,
2013-08-19 13:26:00,80.6,57.2,29.92,NW,323,6.9,-999.9,45,-99.99,,,-99.99,,2013-08-19 17:26:00,
2013-08-19 13:32:00,80.6,57.2,29.91,WSW,244,4.6,-999.9,45,-99.99,,,-99.99,,2013-08-19 17:32:00,
2013-08-19 13:38:00,80.6,57.2,29.91,WSW,244,4.6,-999.9,45,-99.99,,,-99.99,,2013-08-19 17:38:00,
2013-08-19 13:44:00,80.6,57.2,29.90,WSW,245,1.2,-999.9,45,-99.99,,,-99.99,,2013-08-19 17:44:00,
2013-08-19 13:50:00,80.6,57.2,29.90,WSW,245,1.2,-999.9,45,-99.99,,,-99.99,,2013-08-19 17:50:00,
2013-08-19 13:56:00,80.6,55.4,29.90,WNW,298,12.7,-999.9,42,-99.99,,,-99.99,,2013-08-19 17:56:00,
2013-08-19 14:02:00,80.6,57.2,29.90,WNW,298,4.6,-999.9,45,-99.99,,,-99.99,,2013-08-19 18:02:00,
2013-08-19 14:08:00,80.6,57.2,29.90,WNW,298,4.6,-999.9,45,-99.99,,,-99.99,,2013-08-19 18:08:00,
2013-08-19 14:14:00,82.4,57.2,29.90,WNW,285,1.2,-999.9,42,-99.99,,,-99.99,,2013-08-19 18:14:00,
2013-08-19 14:20:00,82.4,57.2,29.90,WNW,285,1.2,-999.9,42,-99.99,,,-99.99,,2013-08-19 18:20:00,
2013-08-19 14:26:00,82.4,57.2,29.90,West,259,8.1,-999.9,42,-99.99,,,-99.99,,2013-08-19 18:26:00,
2013-08-19 14:32:00,80.6,55.4,29.90,WSW,243,4.6,-999.9,42,-99.99,,,-99.99,,2013-08-19 18:32:00,
2013-08-19 14:38:00,80.6,55.4,29.90,WSW,243,4.6,-999.9,42,-99.99,,,-99.99,,2013-08-19 18:38:00,
2013-08-19 14:44:00,80.6,55.4,29.90,West,281,5.8,-999.9,42,-99.99,,,-99.99,,2013-08-19 18:44:00,
2013-08-19 14:50:00,80.6,55.4,29.90,West,281,5.8,-999.9,42,-99.99,,,-99.99,,2013-08-19 18:50:00,
2013-08-19 14:56:00,82.4,57.2,29.90,WSW,256,3.5,-999.9,42,-99.99,,,-99.99,,2013-08-19 18:56:00,
2013-08-19 15:02:00,80.6,55.4,29.90,SW,229,8.1,-999.9,42,-99.99,,,-99.99,,2013-08-19 19:02:00,
2013-08-19 15:08:00,80.6,55.4,29.90,SW,229,8.1,-999.9,42,-99.99,,,-99.99,,2013-08-19 19:08:00,
2013-08-19 15:14:00,80.6,57.2,29.89,West,278,8.1,-999.9,45,-99.99,,,-99.99,,2013-08-19 19:14:00,
2013-08-19 15:20:00,80.6,57.2,29.89,West,278,8.1,-999.9,45,-99.99,,,-99.99,,2013-08-19 19:20:00,
2013-08-19 15:26:00,80.6,57.2,29.89,WSW,250,6.9,-999.9,45,-99.99,,,-99.99,,2013-08-19 19:26:00,
2013-08-19 15:32:00,80.6,57.2,29.89,West,275,8.1,-999.9,45,-99.99,,,-99.99,,2013-08-19 19:32:00,
2013-08-19 15:38:00,80.6,57.2,29.89,West,275,8.1,-999.9,45,-99.99,,,-99.99,,2013-08-19 19:38:00,
2013-08-19 15:44:00,80.6,59.0,29.89,West,275,10.4,-999.9,48,-99.99,,,-99.99,,2013-08-19 19:44:00,
2013-08-19 15:50:00,80.6,59.0,29.89,West,275,10.4,-999.9,48,-99.99,,,-99.99,,2013-08-19 19:50:00,
2013-08-19 15:56:00,80.6,60.8,29.89,SW,236,8.1,-999.9,51,-99.99,,,-99.99,,2013-08-19 19:56:00,
2013-08-19 16:02:00,80.6,60.8,29.89,SW,223,9.2,-999.9,51,-99.99,,,-99.99,,2013-08-19 20:02:00,
2013-08-19 16:08:00,80.6,60.8,29.89,SW,223,9.2,-999.9,51,-99.99,,,-99.99,,2013-08-19 20:08:00,
2013-08-19 16:14:00,80.6,60.8,29.89,WSW,243,10.4,-999.9,51,-99.99,,,-99.99,,2013-08-19 20:14:00,
2013-08-19 16:20:00,80.6,60.8,29.89,WSW,243,10.4,-999.9,51,-99.99,,,-99.99,,2013-08-19 20:20:00,
2013-08-19 16:26:00,80.6,62.6,29.89,WSW,240,11.5,-999.9,54,-99.99,,,-99.99,,2013-08-19 20:26:00,
2013-08-19 16:32:00,80.6,60.8,29.89,SW,219,6.9,-999.9,51,-99.99,,,-99.99,,2013-08-19 20:32:00,
2013-08-19 16:38:00,80.6,60.8,29.89,SW,219,6.9,-999.9,51,-99.99,,,-99.99,,2013-08-19 20:38:00,
2013-08-19 16:44:00,80.6,62.6,29.90,WSW,238,10.4,-999.9,54,-99.99,,,-99.99,,2013-08-19 20:44:00,
2013-08-19 16:50:00,80.6,62.6,29.90,WSW,238,10.4,-999.9,54,-99.99,,,-99.99,,2013-08-19 20:50:00,
2013-08-19 16:56:00,78.8,60.8,29.90,WSW,241,8.1,-999.9,54,-99.99,,,-99.99,,2013-08-19 20:56:00,
2013-08-19 17:02:00,78.8,60.8,29.90,SW,228,8.1,-999.9,54,-99.99,,,-99.99,,2013-08-19 21:02:00,
2013-08-19 17:08:00,78.8,60.8,29.90,SW,228,8.1,-999.9,54,-99.99,,,-99.99,,2013-08-19 21:08:00,
2013-08-19 17:14:00,78.8,59.0,29.90,West,267,9.2,-999.9,51,-99.99,,,-99.99,,2013-08-19 21:14:00,
2013-08-19 17:20:00,78.8,59.0,29.90,West,267,9.2,-999.9,51,-99.99,,,-99.99,,2013-08-19 21:20:00,
2013-08-19 17:26:00,78.8,59.0,29.90,West,265,9.2,-999.9,51,-99.99,,,-99.99,,2013-08-19 21:26:00,
2013-08-19 17:32:00,78.8,60.8,29.90,WSW,239,9.2,-999.9,54,-99.99,,,-99.99,,2013-08-19 21:32:00,
2013-08-19 17:38:00,78.8,60.8,29.90,WSW,239,9.2,-999.9,54,-99.99,,,-99.99,,2013-08-19 21:38:00,
2013-08-19 17:44:00,78.8,62.6,29.90,West,260,8.1,-999.9,57,-99.99,,,-99.99,,2013-08-19 21:44:00,
2013-08-19 17:50:00,78.8,62.6,29.90,West,260,8.1,-999.9,57,-99.99,,,-99.99,,2013-08-19 21:50:00,
2013-08-19 17:56:00,78.8,62.6,29.90,WSW,253,4.6,-999.9,57,-99.99,,,-99.99,,2013-08-19 21:56:00,
2013-08-19 18:02:00,78.8,62.6,29.90,West,281,12.7,-999.9,57,-99.99,,,-99.99,,2013-08-19 22:02:00,
2013-08-19 18:08:00,78.8,62.6,29.90,West,281,12.7,-999.9,57,-99.99,,,-99.99,,2013-08-19 22:08:00,
2013-08-19 18:14:00,77.0,60.8,29.90,WSW,249,10.4,-999.9,57,-99.99,,,-99.99,,2013-08-19 22:14:00,
2013-08-19 18:20:00,77.0,60.8,29.90,WSW,249,10.4,-999.9,57,-99.99,,,-99.99,,2013-08-19 22:20:00,
2013-08-19 18:26:00,77.0,60.8,29.90,WNW,292,9.2,-999.9,57,-99.99,,,-99.99,,2013-08-19 22:26:00,
2013-08-19 18:32:00,77.0,60.8,29.91,WNW,285,13.8,-999.9,57,-99.99,,,-99.99,,2013-08-19 22:32:00,
2013-08-19 18:38:00,77.0,60.8,29.91,WNW,285,13.8,-999.9,57,-99.99,,,-99.99,,2013-08-19 22:38:00,
2013-08-19 18:44:00,77.0,59.0,29.91,West,275,9.2,-999.9,54,-99.99,,,-99.99,,2013-08-19 22:44:00,
2013-08-19 18:50:00,77.0,59.0,29.91,West,275,9.2,-999.9,54,-99.99,,,-99.99,,2013-08-19 22:50:00,
2013-08-19 18:56:00,77.0,57.2,29.91,WSW,251,9.2,-999.9,50,-99.99,,,-99.99,,2013-08-19 22:56:00,
2013-08-19 19:02:00,77.0,57.2,29.91,West,259,8.1,-999.9,50,-99.99,,,-99.99,,2013-08-19 23:02:00,
2013-08-19 19:08:00,77.0,57.2,29.91,West,259,8.1,-999.9,50,-99.99,,,-99.99,,2013-08-19 23:08:00,
2013-08-19 19:14:00,77.0,57.2,29.91,West,262,8.1,-999.9,50,-99.99,,,-99.99,,2013-08-19 23:14:00,
2013-08-19 19:20:00,77.0,57.2,29.91,West,262,8.1,-999.9,50,-99.99,,,-99.99,,2013-08-19 23:20:00,
2013-08-19 19:26:00,77.0,57.2,29.91,West,265,6.9,-999.9,50,-99.99,,,-99.99,,2013-08-19 23:26:00,
2013-08-19 19:32:00,77.0,57.2,29.91,West,260,8.1,-999.9,50,-99.99,,,-99.99,,2013-08-19 23:32:00,
2013-08-19 19:38:00,77.0,57.2,29.91,West,260,8.1,-999.9,50,-99.99,,,-99.99,,2013-08-19 23:38:00,
2013-08-19 19:44:00,77.0,57.2,29.91,West,268,8.1,-999.9,50,-99.99,,,-99.99,,2013-08-19 23:44:00,
2013-08-19 19:50:00,77.0,57.2,29.91,West,268,8.1,-999.9,50,-99.99,,,-99.99,,2013-08-19 23:50:00,
2013-08-19 19:56:00,77.0,59.0,29.90,West,274,9.2,-999.9,54,-99.99,,,-99.99,,2013-08-19 23:56:00,
2013-08-19 20:02:00,77.0,59.0,29.90,West,268,10.4,-999.9,54,-99.99,,,-99.99,,2013-08-20 00:02:00,
2013-08-19 20:08:00,77.0,59.0,29.90,West,268,10.4,-999.9,54,-99.99,,,-99.99,,2013-08-20 00:08:00,
2013-08-19 21:02:00,75.2,60.8,29.92,West,266,8.1,-999.9,61,-99.99,,,-99.99,,2013-08-20 01:02:00,
2013-08-19 21:08:00,75.2,60.8,29.92,West,266,8.1,-999.9,61,-99.99,,,-99.99,,2013-08-20 01:08:00,
2013-08-19 21:14:00,75.2,60.8,29.92,West,264,9.2,-999.9,61,-99.99,,,-99.99,,2013-08-20 01:14:00,
2013-08-19 21:20:00,75.2,60.8,29.92,West,264,9.2,-999.9,61,-99.99,,,-99.99,,2013-08-20 01:20:00,
2013-08-19 21:26:00,75.2,62.6,29.93,West,273,6.9,-999.9,65,-99.99,,,-99.99,,2013-08-20 01:26:00,
2013-08-19 21:32:00,75.2,62.6,29.92,West,276,9.2,-999.9,65,-99.99,,,-99.99,,2013-08-20 01:32:00,
2013-08-19 21:38:00,75.2,62.6,29.92,West,276,9.2,-999.9,65,-99.99,,,-99.99,,2013-08-20 01:38:00,
2013-08-19 21:44:00,75.2,62.6,29.92,WSW,255,9.2,-999.9,65,-99.99,,,-99.99,,2013-08-20 01:44:00,
2013-08-19 21:50:00,75.2,62.6,29.92,WSW,255,9.2,-999.9,65,-99.99,,,-99.99,,2013-08-20 01:50:00,
2013-08-19 21:56:00,75.2,62.6,29.92,WNW,282,11.5,-999.9,65,-99.99,,,-99.99,,2013-08-20 01:56:00,
2013-08-19 22:02:00,75.2,62.6,29.93,WNW,282,12.7,-999.9,65,-99.99,,,-99.99,,2013-08-20 02:02:00,
2013-08-19 22:08:00,75.2,62.6,29.93,WNW,282,12.7,-999.9,65,-99.99,,,-99.99,,2013-08-20 02:08:00,
2013-08-19 22:14:00,75.2,62.6,29.93,WNW,283,12.7,-999.9,65,-99.99,,,-99.99,,2013-08-20 02:14:00,
2013-08-19 22:20:00,75.2,62.6,29.93,WNW,283,12.7,-999.9,65,-99.99,,,-99.99,,2013-08-20 02:20:00,
2013-08-19 22:26:00,75.2,62.6,29.93,West,274,13.8,-999.9,65,-99.99,,,-99.99,,2013-08-20 02:26:00,
2013-08-19 22:32:00,75.2,62.6,29.93,West,269,9.2,-999.9,65,-99.99,,,-99.99,,2013-08-20 02:32:00,
2013-08-19 22:38:00,75.2,62.6,29.93,West,269,9.2,-999.9,65,-99.99,,,-99.99,,2013-08-20 02:38:00,
2013-08-19 22:44:00,75.2,64.4,29.93,West,273,12.7,-999.9,69,-99.99,,,-99.99,,2013-08-20 02:44:00,
2013-08-19 22:50:00,75.2,64.4,29.93,West,273,12.7,-999.9,69,-99.99,,,-99.99,,2013-08-20 02:50:00,
2013-08-19 22:56:00,75.2,64.4,29.93,West,267,9.2,-999.9,69,-99.99,,,-99.99,,2013-08-20 02:56:00,
2013-08-19 23:02:00,73.4,62.6,29.93,West,281,6.9,-999.9,69,-99.99,,,-99.99,,2013-08-20 03:02:00,
2013-08-19 23:08:00,73.4,62.6,29.93,West,281,6.9,-999.9,69,-99.99,,,-99.99,,2013-08-20 03:08:00,
2013-08-19 23:14:00,73.4,62.6,29.93,WSW,245,5.8,-999.9,69,-99.99,,,-99.99,,2013-08-20 03:14:00,
2013-08-19 23:20:00,73.4,62.6,29.93,WSW,245,5.8,-999.9,69,-99.99,,,-99.99,,2013-08-20 03:20:00,
2013-08-19 23:26:00,73.4,62.6,29.94,WSW,238,2.3,-999.9,69,-99.99,,,-99.99,,2013-08-20 03:26:00,
2013-08-19 23:32:00,73.4,64.4,29.94,SSW,206,3.5,-999.9,73,-99.99,,,-99.99,,2013-08-20 03:32:00,
2013-08-19 23:38:00,73.4,64.4,29.94,SSW,206,3.5,-999.9,73,-99.99,,,-99.99,,2013-08-20 03:38:00,
2013-08-19 23:44:00,73.4,64.4,29.94,SSW,207,5.8,-999.9,73,-99.99,,,-99.99,,2013-08-20 03:44:00,
2013-08-19 23:50:00,73.4,64.4,29.94,SSW,207,5.8,-999.9,73,-99.99,,,-99.99,,2013-08-20 03:50:00,
2013-08-19 23:56:00,73.4,64.4,29.94,SSW,205,2.3,-999.9,73,-99.99,,,-99.99,,2013-08-20 03:56:00,